Simultaneous Nadir Overpasses (SNOs) Predictions

Prediction of SNOs between NOAA-20 and LANDSAT-8 Satellite Orbit:

Table of predicted SNOs for the next 14.0 days since TLE Epoch: 1/2/2021
Index Date (NOAA-20) Time (NOAA-20) Lat,Lon (NOAA-20) SZA (NOAA-20 ) Date (LANDSAT-8) Time (LANDSAT-8) Lat,Lon (LANDSAT-8) SZA (LANDSAT-8 ) Distance(km) Time Diff (sec)
1 01/02/2021 15:06:08 70.07, -50.31 92.89 01/02/2021 15:06:54 70.07, -50.26 92.88 1.67 46
2 01/02/2021 15:56:49 -69.94, 117.21 87.26 01/02/2021 15:56:24 -69.96, 117.21 87.24 2.31 25
3 01/05/2021 06:32:35 -71.00,-103.34 86.41 01/05/2021 06:33:41 -70.94,-100.74 86.55 94.63 66
4 01/05/2021 07:23:03 70.05, 65.51 92.58 01/05/2021 07:23:23 70.02, 65.54 92.55 3.17 20
5 01/05/2021 08:13:44 -69.91,-126.97 87.57 01/05/2021 08:12:53 -69.91,-126.98 87.56 0.52 51
6 01/07/2021 22:49:13 -70.09, 13.91 87.70 01/07/2021 22:50:25 -70.07, 13.85 87.73 3.13 72
7 01/07/2021 23:39:57 69.97,-178.60 92.18 01/07/2021 23:39:52 69.96,-178.66 92.17 2.57 5
8 01/08/2021 00:30:36 -69.72, -10.91 88.09 01/08/2021 00:29:23 -69.80, -11.25 88.00 15.53 73
9 01/10/2021 15:06:08 -70.06, 129.73 88.11 01/10/2021 15:06:53 -70.06, 129.72 88.11 0.35 45
10 01/10/2021 15:56:52 69.94, -62.79 91.77 01/10/2021 15:56:20 69.95, -62.80 91.78 0.48 32
11 01/13/2021 06:32:32 70.76, 77.07 92.21 01/13/2021 06:33:40 70.70, 78.90 92.08 67.52 68
12 01/13/2021 07:23:02 -70.03,-114.46 88.56 01/13/2021 07:23:20 -70.04,-114.42 88.56 2.02 18
13 01/13/2021 08:13:46 69.92, 53.02 91.32 01/13/2021 08:12:47 69.93, 53.06 91.33 2.07 59
14 01/15/2021 22:49:15 70.11,-166.12 91.05 01/15/2021 22:50:18 70.12,-166.06 91.05 3.07 63
15 01/15/2021 23:39:56 -69.96, 1.43 89.12 01/15/2021 23:39:49 -69.97, 1.36 89.11 2.85 7
16 01/16/2021 00:30:33 69.48, 169.44 90.38 01/16/2021 00:29:22 69.52, 168.39 90.46 41.44 71



Historial Predications of SNOs between NOAA-20 and LANDSAT-8
